Weather Roundup
Issued by NWS

Home | Current Version | Previous Version | Text Only | Print | Product List | Glossary On
Versions: 1 2 3 4 5 6 7 8 9 10 11 12 13 14 15 16 17 18 19 20 21 22 23 24 25 26 27 28 29 30 31 32 33 34 35 36 37 38 39 40 41 42 43 44 45 46 47 48 49 50
668
NZUS93 KARX 180710
HRRWXR

CURRENT HOURLY OBSERVATIONS ACROSS
MUCH OF THE UPPER MISSISSIPPI VALLEY
NATIONAL WEATHER SERVICE LA CROSSE WI
100 AM CST SAT NOV 18 2017


...SOUTHEAST MINNESOTA...


CITY           SKY/WX    TMP DP  RH WIND       PRES   REMARKS
ROCHESTER      CLOUDY    35  35 100 N9        29.64R WCI  28
ROCHESTER/MAYO CLOUDY    36  36 100 NW3       29.65R
WINONA         CLOUDY    36  36 100 NW3       29.63F
AUSTIN         CLOUDY    36  34  93 N5        29.64S FOG     WCI  32
ALBERT LEA     CLOUDY    36  36 100 N8        29.65F FOG     WCI  29
DODGE CENTER   CLOUDY    36  34  93 N8        29.64R FOG     WCI  29
PRESTON        CLOUDY    35  34  96 N7        29.61S FOG     WCI  29
OWATONNA       CLOUDY    36  36 100 NW13      29.68R FOG     WCI  27
FARIBAULT      CLOUDY    36  36 100 NW9       29.69R FOG     WCI  29
$$

...ELSEWHERE IN MINNESOTA...


CITY           SKY/WX    TMP DP  RH WIND       PRES   REMARKS
MINNEAPOLIS    CLOUDY    36  35  96 N7        29.68F WCI  30
INTNL FALLS    PTCLDY    20  15  81 NW6       29.73R HAZE    WCI  12
DULUTH         CLOUDY    31  30  96 NW9       29.65S WCI  23
RED WING       CLOUDY    37  34  87 N5        29.67R WCI  34
REDWOOD FALLS  CLOUDY    33  27  78 NW7       29.72R WCI  27
MANKATO        CLOUDY    36  34  92 N8        29.70R FOG     WCI  30
WORTHINGTON    CLOUDY    33  29  85 N14       29.69F WCI  23
FAIRMONT       CLOUDY    35  34  96 N15       29.68S WCI  25
$$

...SOUTHWEST WISCONSIN...


CITY           SKY/WX    TMP DP  RH WIND       PRES   REMARKS
LA CROSSE      CLOUDY    39  37  92 NW7       29.62S WCI  34
PRAIRIE DU CHI CLOUDY    38  37  95 NW5       29.58F FOG     WCI  35
BOSCOBEL       CLOUDY    40  38  93 CALM      29.59F FOG
LONE ROCK      CLOUDY    39  38  96 NW5       29.58F FOG
PLATTEVILLE    CLOUDY    39  39 100 N6        29.56S WCI  35
FORT MC COY    CLOUDY    35  35  99 CALM      29.62R
CAMP DOUGLAS   CLOUDY    37  36  93 NW6       29.60S WCI  33
MAUSTON-NEW LI CLOUDY    37  36  98 NW5       29.58F FOG     WCI  33
VIROQUA        CLOUDY    36  36 100 N8        29.57F WCI  29
WIS DELLS      CLOUDY    36  36  99 N3        29.57S FOG
$$

...ELSEWHERE IN WISCONSIN...


CITY           SKY/WX    TMP DP  RH WIND       PRES   REMARKS
MILWAUKEE      CLOUDY    43  42  97 CALM      29.55F
MADISON        CLOUDY    38  37  97 N5        29.56F FOG     WCI  34
GREEN BAY      CLOUDY    37  37 100 NW7       29.58S WCI  32
EAU CLAIRE     CLOUDY    35  34  96 N5        29.63S WCI  31
BLACK RVR FLS  CLOUDY    37  37 100 CALM      29.61R FOG
MEDFORD        CLOUDY    32  32  99 N5        29.58S FOG     WCI  28
WAUSAU         CLOUDY    34  33  96 N9        29.57F FOG     WCI  27
WIS RAPIDS     CLOUDY    36  34  92 N10       29.58F WCI  28
MARSHFIELD     CLOUDY    34  32  92 N9        29.58R FOG     WCI  27
RICE LAKE      CLOUDY    34  33  99 N7        29.66S FOG     WCI  28
$$

...NORTHEAST IOWA...


CITY           SKY/WX    TMP DP  RH WIND       PRES   REMARKS
WATERLOO       CLOUDY    39  38  96 N8        29.58R WCI  33
DUBUQUE        FOG       39  39 100 NE14      29.53F VSB 1/4 WCI  31
DECORAH        CLOUDY    37  37 100 N8        29.60R FOG     WCI  31
MASON CITY     LGT RAIN  37  35  92 N16       29.66R WCI  28
CHARLES CITY   CLOUDY    37  37 100 N12       29.60F WCI  30
OELWEIN        CLOUDY    39  39 100 NE13      29.56F FOG     WCI  32
$$

...ELSEWHERE IN IOWA...


CITY           SKY/WX    TMP DP  RH WIND       PRES   REMARKS
DES MOINES     CLOUDY    45  43  93 N20       29.56S
IOWA CITY      CLOUDY    46  43  89 NE6       29.54F FOG
FORT DODGE     LGT RAIN  38  37  97 N10       29.63F WCI  31
MARSHALLTOWN   CLOUDY    41  41 100 N14       29.58R FOG
CEDAR RAPIDS   CLOUDY    43  43 100 N7        29.53F FOG
$$

...NORTHERN ILLINOIS...


CITY           SKY/WX    TMP DP  RH WIND       PRES   REMARKS
CHICAGO-OHARE  LGT RAIN  47  45  93 N3        29.56S FOG
CHICAGO-MIDWAY CLOUDY    48  47  96 NW5       29.55S FOG
MOLINE         CLOUDY    46  43  89 NE6       29.51F FOG
ROCKFORD       DRIZZLE   43  42  97 CALM      29.56F FOG
PEORIA         CLOUDY    51  48  89 SE3       29.51F
$$

NOTE: "FAIR" INDICATES FEW OR NO CLOUDS BELOW 12,000 FEET WITH NO
SIGNIFICANT WEATHER AND/OR OBSTRUCTIONS TO VISIBILITY. WIND
SPEEDS ARE IN MILES-PER-HOUR.




USA.gov is the U.S. government's official web portal to all federal, state and local government web resources and services.